| time (UTC) | temp C | wind direction | speed KPH | gust KPH | rain 1hr cm | rain 24hr cm | rain mn cm | humidity % | barometer mb |
| 20260901095405 | 10 | 201 | 11.3 | 35.4 | 0.00 | 0.03 | 0.00 | 76 | 1015.5 |
| 20260901094905 | 10 | 201 | 11.3 | 20.9 | 0.00 | 0.03 | 0.00 | 76 | 1015.5 |
| 20260901094406 | 10 | 217 | 9.7 | 22.5 | 0.00 | 0.03 | 0.00 | 76 | 1015.5 |
| 20260901093905 | 10 | 219 | 11.3 | 24.1 | 0.00 | 0.03 | 0.00 | 75 | 1015.6 |
| 20260901093404 | 10 | 245 | 9.7 | 24.1 | 0.00 | 0.03 | 0.00 | 75 | 1015.6 |
| 20260901092905 | 10 | 263 | 9.7 | 22.5 | 0.00 | 0.03 | 0.00 | 76 | 1015.4 |
| 20260901091905 | 10 | 221 | 8.0 | 27.4 | 0.00 | 0.03 | 0.00 | 75 | 1015.3 |
| 20260901091405 | 10 | 230 | 8.0 | 22.5 | 0.00 | 0.03 | 0.00 | 76 | 1015.3 |
| 20260901084906 | 10 | 227 | 9.7 | 29.0 | 0.00 | 0.03 | 0.00 | 76 | 1015.2 |
| 20260901084405 | 10 | 213 | 12.9 | 27.4 | 0.00 | 0.03 | 0.00 | 77 | 1015.0 |
| 20260901083905 | 10 | 280 | 11.3 | 24.1 | 0.00 | 0.03 | 0.00 | 77 | 1015.0 |
| 20260901083405 | 10 | 208 | 11.3 | 22.5 | 0.00 | 0.03 | 0.00 | 77 | 1014.9 |
| 20260901082906 | 10 | 221 | 14.5 | 25.7 | 0.00 | 0.03 | 0.00 | 77 | 1014.8 |
| 20260901082404 | 10 | 197 | 11.3 | 24.1 | 0.00 | 0.03 | 0.00 | 77 | 1014.8 |
| 20260901081904 | 10 | 228 | 11.3 | 24.1 | 0.00 | 0.03 | 0.00 | 77 | 1014.7 |
| 20260901081405 | 10 | 220 | 9.7 | 25.7 | 0.00 | 0.03 | 0.00 | 77 | 1014.8 |
| 20260901080905 | 10 | 202 | 12.9 | 25.7 | 0.00 | 0.03 | 0.00 | 77 | 1014.8 |
| 20260901080404 | 10 | 215 | 11.3 | 33.8 | 0.00 | 0.03 | 0.00 | 77 | 1014.8 |
| 20260901075904 | 10 | 224 | 14.5 | 29.0 | 0.00 | 0.03 | 0.00 | 77 | 1014.8 |
| 20260901075404 | 10 | 243 | 11.3 | 24.1 | 0.00 | 0.03 | 0.00 | 77 | 1014.8 |
| 20260901074904 | 10 | 225 | 11.3 | 27.4 | 0.00 | 0.03 | 0.00 | 77 | 1014.8 |
| 20260901074405 | 10 | 237 | 12.9 | 25.7 | 0.00 | 0.03 | 0.00 | 77 | 1014.8 |
| 20260901073904 | 10 | 284 | 9.7 | 22.5 | 0.00 | 0.03 | 0.00 | 77 | 1014.8 |
| 20260901073405 | 10 | 240 | 9.7 | 32.2 | 0.00 | 0.03 | 0.00 | 77 | 1014.7 |
| 20260901072904 | 10 | 246 | 9.7 | 29.0 | 0.00 | 0.03 | 0.00 | 77 | 1014.7 |
| 20260901071905 | 10 | 200 | 9.7 | 24.1 | 0.00 | 0.05 | 0.00 | 77 | 1014.6 |
| 20260901071405 | 10 | 261 | 9.7 | 20.9 | 0.00 | 0.05 | 0.00 | 76 | 1014.6 |
| 20260901070405 | 10 | 197 | 8.0 | 19.3 | 0.00 | 0.05 | 0.00 | 76 | 1014.6 |
| 20260901065905 | 10 | 197 | 14.5 | 32.2 | 0.00 | 0.05 | 0.00 | 75 | 1014.5 |
| 20260901065405 | 10 | 266 | 11.3 | 27.4 | 0.00 | 0.05 | 0.00 | 75 | 1014.4 |
| 20260901064905 | 10 | 203 | 11.3 | 32.2 | 0.00 | 0.05 | 0.00 | 75 | 1014.4 |
| 20260901064405 | 10 | 210 | 11.3 | 20.9 | 0.00 | 0.05 | 0.00 | 75 | 1014.4 |
| 20260901063904 | 10 | 280 | 8.0 | 24.1 | 0.00 | 0.05 | 0.00 | 75 | 1014.4 |
| 20260901063405 | 10 | 251 | 12.9 | 22.5 | 0.00 | 0.05 | 0.00 | 75 | 1014.3 |
| 20260901062909 | 10 | 206 | 9.7 | 40.2 | 0.00 | 0.05 | 0.00 | 74 | 1014.2 |
| 20260901062406 | 10 | 215 | 9.7 | 22.5 | 0.00 | 0.05 | 0.00 | 75 | 1014.2 |
| 20260901061405 | 10 | 220 | 8.0 | 25.7 | 0.00 | 0.05 | 0.00 | 74 | 1014.2 |
| 20260901060905 | 10 | 269 | 12.9 | 27.4 | 0.00 | 0.05 | 0.00 | 74 | 1014.2 |
| 20260901055905 | 10 | 214 | 14.5 | 24.1 | 0.00 | 0.05 | 0.00 | 74 | 1014.1 |
| 20260901055405 | 10 | 231 | 9.7 | 24.1 | 0.00 | 0.05 | 0.00 | 74 | 1014.1 |
| 20260901054905 | 11 | 254 | 12.9 | 25.7 | 0.00 | 0.05 | 0.00 | 74 | 1014.0 |
| 20260901054405 | 11 | 327 | 9.7 | 22.5 | 0.00 | 0.05 | 0.00 | 74 | 1013.9 |
| 20260901053405 | 11 | 220 | 9.7 | 29.0 | 0.00 | 0.05 | 0.00 | 73 | 1013.9 |
| 20260901052405 | 11 | 199 | 16.1 | 32.2 | 0.00 | 0.05 | 0.00 | 72 | 1013.7 |
| 20260901051905 | 11 | 258 | 11.3 | 27.4 | 0.00 | 0.05 | 0.00 | 71 | 1013.7 |
| 20260901051405 | 12 | 352 | 11.3 | 38.6 | 0.00 | 0.05 | 0.00 | 71 | 1013.6 |
| 20260901050405 | 12 | 296 | 11.3 | 29.0 | 0.00 | 0.05 | 0.00 | 70 | 1013.8 |
| 20260901045905 | 12 | 230 | 14.5 | 35.4 | 0.00 | 0.05 | 0.00 | 69 | 1013.7 |
| 20260901045405 | 12 | 275 | 9.7 | 25.7 | 0.00 | 0.05 | 0.00 | 69 | 1013.6 |
| 20260901044905 | 12 | 247 | 11.3 | 32.2 | 0.00 | 0.05 | 0.00 | 68 | 1013.5 |
| 20260901043905 | 12 | 225 | 14.5 | 32.2 | 0.00 | 0.05 | 0.00 | 69 | 1013.5 |
| 20260901043405 | 12 | 254 | 11.3 | 32.2 | 0.00 | 0.05 | 0.00 | 70 | 1013.6 |
| 20260901042904 | 12 | 213 | 16.1 | 32.2 | 0.00 | 0.05 | 0.00 | 69 | 1013.5 |
| 20260901042405 | 13 | 250 | 12.9 | 29.0 | 0.00 | 0.05 | 0.00 | 69 | 1013.4 |
| 20260901041905 | 13 | 276 | 11.3 | 32.2 | 0.00 | 0.05 | 0.00 | 69 | 1013.3 |
| 20260901041405 | 13 | 246 | 11.3 | 32.2 | 0.00 | 0.05 | 0.00 | 68 | 1013.3 |
| 20260901040905 | 13 | 247 | 9.7 | 37.0 | 0.00 | 0.05 | 0.00 | 69 | 1013.2 |
| 20260901040405 | 13 | 222 | 11.3 | 32.2 | 0.00 | 0.05 | 0.00 | 69 | 1013.2 |
| 20260901035405 | 13 | 197 | 9.7 | 29.0 | 0.00 | 0.05 | 0.00 | 69 | 1013.0 |
| 20260901034905 | 13 | 238 | 12.9 | 29.0 | 0.00 | 0.05 | 0.00 | 69 | 1013.2 |
| 20260901034405 | 12 | 219 | 9.7 | 32.2 | 0.00 | 0.05 | 0.00 | 70 | 1013.1 |
| 20260901033905 | 12 | 343 | 14.5 | 29.0 | 0.00 | 0.05 | 0.00 | 71 | 1013.1 |
| 20260901033405 | 11 | 222 | 14.5 | 33.8 | 0.00 | 0.05 | 0.00 | 71 | 1013.2 |
| 20260901032905 | 11 | 260 | 16.1 | 33.8 | 0.00 | 0.05 | 0.00 | 71 | 1013.2 |
| 20260901032404 | 12 | 219 | 16.1 | 35.4 | 0.00 | 0.05 | 0.00 | 70 | 1013.3 |
| 20260901031905 | 12 | 216 | 22.5 | 51.5 | 0.00 | 0.05 | 0.00 | 69 | 1013.1 |
| 20260901031405 | 12 | 239 | 20.9 | 46.7 | 0.00 | 0.05 | 0.00 | 69 | 1013.1 |
| 20260901030905 | 12 | 222 | 19.3 | 45.1 | 0.00 | 0.05 | 0.00 | 67 | 1013.0 |
| 20260901025905 | 12 | 203 | 19.3 | 38.6 | 0.00 | 0.05 | 0.00 | 66 | 1013.1 |
| 20260901024905 | 13 | 331 | 16.1 | 29.0 | 0.00 | 0.05 | 0.00 | 65 | 1012.9 |
| 20260901024405 | 13 | 223 | 14.5 | 29.0 | 0.00 | 0.05 | 0.00 | 66 | 1012.7 |
| 20260901023905 | 13 | 201 | 14.5 | 32.2 | 0.00 | 0.05 | 0.00 | 68 | 1012.7 |
| 20260901022405 | 13 | 293 | 17.7 | 37.0 | 0.00 | 0.05 | 0.00 | 66 | 1012.6 |
| 20260901021905 | 13 | 202 | 14.5 | 33.8 | 0.00 | 0.05 | 0.00 | 68 | 1012.6 |
| 20260901021405 | 13 | 304 | 19.3 | 37.0 | 0.00 | 0.05 | 0.00 | 67 | 1012.5 |
| 20260901020905 | 13 | 232 | 20.9 | 40.2 | 0.00 | 0.05 | 0.00 | 66 | 1012.7 |
| 20260901015905 | 13 | 291 | 9.7 | 29.0 | 0.00 | 0.05 | 0.00 | 68 | 1012.7 |
| 20260901015405 | 13 | 235 | 16.1 | 37.0 | 0.00 | 0.05 | 0.00 | 68 | 1012.8 |
| 20260901014905 | 13 | 309 | 14.5 | 35.4 | 0.00 | 0.05 | 0.00 | 67 | 1012.7 |
| 20260901014404 | 13 | 266 | 16.1 | 35.4 | 0.00 | 0.05 | 0.00 | 65 | 1012.7 |
| 20260901013904 | 13 | 229 | 16.1 | 33.8 | 0.00 | 0.05 | 0.00 | 65 | 1012.7 |
| 20260901013404 | 13 | 209 | 14.5 | 32.2 | 0.00 | 0.05 | 0.00 | 65 | 1012.7 |
| 20260901012905 | 13 | 230 | 16.1 | 46.7 | 0.00 | 0.05 | 0.00 | 66 | 1012.7 |
| 20260901012405 | 13 | 213 | 19.3 | 37.0 | 0.00 | 0.05 | 0.00 | 65 | 1012.5 |
| 20260901011405 | 13 | 283 | 17.7 | 33.8 | 0.00 | 0.05 | 0.00 | 66 | 1012.7 |
| 20260901010905 | 13 | 235 | 17.7 | 35.4 | 0.00 | 0.05 | 0.00 | 65 | 1012.7 |
| 20260901010404 | 13 | 252 | 17.7 | 51.5 | 0.00 | 0.05 | 0.00 | 65 | 1012.8 |
| 20260901005905 | 13 | 248 | 14.5 | 33.8 | 0.00 | 0.05 | 0.00 | 66 | 1012.8 |
| 20260901005405 | 13 | 213 | 19.3 | 35.4 | 0.00 | 0.05 | 0.00 | 66 | 1012.9 |
| 20260901004905 | 13 | 204 | 19.3 | 37.0 | 0.00 | 0.05 | 0.00 | 66 | 1013.0 |
| 20260901004405 | 13 | 287 | 11.3 | 37.0 | 0.00 | 0.05 | 0.00 | 67 | 1013.1 |
| 20260901003904 | 13 | 206 | 19.3 | 32.2 | 0.00 | 0.05 | 0.00 | 66 | 1013.2 |
| 20260901003405 | 13 | 259 | 11.3 | 37.0 | 0.00 | 0.05 | 0.00 | 66 | 1013.1 |
| 20260901002905 | 13 | 227 | 14.5 | 32.2 | 0.00 | 0.05 | 0.00 | 65 | 1013.2 |
| 20260901002404 | 13 | 212 | 11.3 | 33.8 | 0.00 | 0.05 | 0.00 | 65 | 1013.3 |
| 20260901001904 | 13 | 202 | 22.5 | 46.7 | 0.00 | 0.05 | 0.00 | 64 | 1013.2 |
| 20260901001405 | 13 | 218 | 19.3 | 40.2 | 0.00 | 0.05 | 0.00 | 63 | 1013.1 |
| 20260901000405 | 13 | 297 | 14.5 | 27.4 | 0.00 | 0.05 | 0.00 | 65 | 1013.1 |
| 20260831235905 | 13 | 294 | 12.9 | 29.0 | 0.00 | 0.05 | 0.00 | 65 | 1013.1 |
| 20260831235405 | 13 | 209 | 11.3 | 22.5 | 0.00 | 0.05 | 0.00 | 66 | 1013.1 |
| 20260831234905 | 13 | 230 | 11.3 | 25.7 | 0.00 | 0.05 | 0.00 | 67 | 1013.1 |
| 20260831233406 | 12 | 225 | 17.7 | 33.8 | 0.00 | 0.05 | 0.00 | 67 | 1013.2 |
| 20260831232905 | 12 | 264 | 12.9 | 29.0 | 0.00 | 0.05 | 0.00 | 66 | 1013.2 |
| 20260831232405 | 13 | 261 | 14.5 | 25.7 | 0.00 | 0.05 | 0.00 | 65 | 1013.2 |
| 20260831231905 | 13 | 215 | 11.3 | 24.1 | 0.00 | 0.05 | 0.00 | 66 | 1013.3 |
| 20260831231404 | 13 | 234 | 11.3 | 27.4 | 0.00 | 0.05 | 0.00 | 66 | 1013.2 |
| 20260831230904 | 13 | 217 | 9.7 | 27.4 | 0.00 | 0.05 | 0.00 | 68 | 1013.2 |
| 20260831230405 | 12 | 235 | 11.3 | 27.4 | 0.00 | 0.05 | 0.00 | 67 | 1013.1 |
| 20260831225905 | 12 | 199 | 14.5 | 32.2 | 0.00 | 0.05 | 0.00 | 67 | 1013.1 |
| 20260831225404 | 12 | 234 | 14.5 | 37.0 | 0.00 | 0.05 | 0.00 | 66 | 1013.0 |
| 20260831224905 | 12 | 317 | 20.9 | 40.2 | 0.00 | 0.05 | 0.00 | 66 | 1012.9 |
| 20260831224405 | 12 | 221 | 11.3 | 29.0 | 0.00 | 0.05 | 0.00 | 66 | 1013.1 |
| 20260831222905 | 12 | 205 | 11.3 | 45.1 | 0.00 | 0.05 | 0.00 | 69 | 1012.9 |
| 20260831222405 | 12 | 208 | 14.5 | 33.8 | 0.00 | 0.05 | 0.00 | 69 | 1012.9 |
| 20260831221904 | 12 | 206 | 17.7 | 33.8 | 0.00 | 0.05 | 0.00 | 68 | 1013.1 |
| 20260831221405 | 12 | 232 | 9.7 | 27.4 | 0.00 | 0.05 | 0.00 | 69 | 1013.1 |
| 20260831220905 | 12 | 214 | 11.3 | 32.2 | 0.00 | 0.05 | 0.00 | 69 | 1013.0 |
| 20260831220404 | 11 | 215 | 14.5 | 33.8 | 0.00 | 0.05 | 0.00 | 69 | 1013.0 |
| 20260831215405 | 11 | 217 | 12.9 | 27.4 | 0.00 | 0.05 | 0.00 | 70 | 1013.0 |
| 20260831214905 | 11 | 199 | 8.0 | 32.2 | 0.00 | 0.05 | 0.00 | 69 | 1013.0 |
| 20260831214404 | 11 | 250 | 11.3 | 22.5 | 0.00 | 0.05 | 0.00 | 69 | 1013.0 |
| 20260831213906 | 11 | 192 | 8.0 | 27.4 | 0.00 | 0.05 | 0.00 | 70 | 1012.9 |
| 20260831213404 | 11 | 274 | 8.0 | 29.0 | 0.00 | 0.05 | 0.00 | 71 | 1013.0 |
| 20260831212905 | 11 | 204 | 16.1 | 29.0 | 0.00 | 0.05 | 0.00 | 70 | 1012.9 |
| 20260831211404 | 11 | 214 | 9.7 | 25.7 | 0.00 | 0.05 | 0.00 | 71 | 1012.7 |
| 20260831210905 | 10 | 198 | 9.7 | 25.7 | 0.00 | 0.05 | 0.00 | 72 | 1012.6 |
| 20260831210405 | 10 | 346 | 11.3 | 32.2 | 0.00 | 0.05 | 0.00 | 72 | 1012.4 |
| 20260831205404 | 10 | 255 | 11.3 | 29.0 | 0.00 | 0.05 | 0.00 | 74 | 1012.5 |
| 20260831204904 | 10 | 216 | 6.4 | 16.1 | 0.00 | 0.05 | 0.00 | 74 | 1012.6 |
| 20260831204404 | 10 | 223 | 8.0 | 20.9 | 0.00 | 0.05 | 0.00 | 74 | 1012.4 |
| 20260831203905 | 10 | 237 | 3.2 | 16.1 | 0.00 | 0.05 | 0.00 | 74 | 1012.3 |
| 20260831203405 | 10 | 219 | 6.4 | 19.3 | 0.00 | 0.05 | 0.00 | 74 | 1012.3 |
| 20260831202404 | 9 | 200 | 4.8 | 19.3 | 0.00 | 0.05 | 0.00 | 76 | 1012.4 |
| 20260831201405 | 8 | 239 | 6.4 | 19.3 | 0.00 | 0.05 | 0.00 | 77 | 1012.1 |
| 20260831195904 | 8 | 202 | 9.7 | 24.1 | 0.00 | 0.05 | 0.00 | 78 | 1011.8 |
| 20260831195405 | 8 | 205 | 8.0 | 29.0 | 0.00 | 0.05 | 0.00 | 78 | 1011.9 |
| 20260831194905 | 8 | 219 | 8.0 | 20.9 | 0.00 | 0.05 | 0.00 | 78 | 1011.8 |
| 20260831194404 | 8 | 271 | 8.0 | 19.3 | 0.00 | 0.05 | 0.00 | 78 | 1011.7 |
| 20260831193905 | 8 | 220 | 11.3 | 25.7 | 0.00 | 0.05 | 0.00 | 77 | 1011.7 |
| 20260831192904 | 8 | 251 | 9.7 | 24.1 | 0.00 | 0.05 | 0.00 | 77 | 1011.6 |
| 20260831192404 | 8 | 212 | 4.8 | 19.3 | 0.00 | 0.05 | 0.00 | 77 | 1011.6 |
| 20260831191905 | 8 | 308 | 6.4 | 19.3 | 0.00 | 0.05 | 0.00 | 77 | 1011.4 |
| 20260831191404 | 7 | 205 | 9.7 | 22.5 | 0.00 | 0.05 | 0.00 | 77 | 1011.3 |
| 20260831185904 | 7 | 289 | 6.4 | 19.3 | 0.00 | 0.05 | 0.00 | 76 | 1010.8 |
| 20260831185405 | 7 | 331 | 4.8 | 11.3 | 0.00 | 0.05 | 0.00 | 76 | 1010.7 |
| 20260831184905 | 8 | 218 | 4.8 | 16.1 | 0.00 | 0.05 | 0.00 | 75 | 1010.5 |
| 20260831184405 | 8 | 250 | 9.7 | 22.5 | 0.00 | 0.05 | 0.00 | 75 | 1010.6 |
| 20260831183905 | 8 | 199 | 12.9 | 29.0 | 0.00 | 0.05 | 0.00 | 75 | 1010.6 |
| 20260831183405 | 8 | 208 | 11.3 | 25.7 | 0.00 | 0.05 | 0.00 | 75 | 1010.6 |
| 20260831182905 | 7 | 217 | 9.7 | 27.4 | 0.00 | 0.05 | 0.00 | 76 | 1010.2 |
| 20260831182404 | 7 | 203 | 14.5 | 32.2 | 0.00 | 0.05 | 0.00 | 76 | 1010.2 |
| 20260831181404 | 7 | 218 | 11.3 | 22.5 | 0.00 | 0.05 | 0.00 | 76 | 1010.1 |
| 20260831180904 | 7 | 212 | 9.7 | 27.4 | 0.00 | 0.05 | 0.00 | 77 | 1010.0 |
| 20260831180405 | 7 | 220 | 9.7 | 24.1 | 0.00 | 0.05 | 0.00 | 77 | 1009.8 |
| 20260831175904 | 7 | 235 | 11.3 | 25.7 | 0.00 | 0.05 | 0.00 | 78 | 1009.7 |
| 20260831175405 | 7 | 210 | 8.0 | 24.1 | 0.00 | 0.05 | 0.00 | 78 | 1009.7 |
| 20260831174904 | 7 | 247 | 8.0 | 20.9 | 0.00 | 0.05 | 0.00 | 78 | 1009.8 |
| 20260831174404 | 7 | 216 | 9.7 | 19.3 | 0.00 | 0.05 | 0.00 | 78 | 1009.9 |
| 20260831173904 | 7 | 227 | 8.0 | 19.3 | 0.00 | 0.05 | 0.00 | 78 | 1009.7 |
| 20260831173405 | 7 | 36 | 6.4 | 19.3 | 0.00 | 0.05 | 0.00 | 78 | 1009.7 |
| 20260831172905 | 7 | 215 | 8.0 | 20.9 | 0.00 | 0.05 | 0.00 | 78 | 1009.7 |
| 20260831172404 | 7 | 263 | 8.0 | 22.5 | 0.00 | 0.05 | 0.00 | 78 | 1009.6 |
| 20260831171904 | 7 | 290 | 8.0 | 19.3 | 0.00 | 0.05 | 0.00 | 78 | 1009.6 |
| 20260831171405 | 7 | 254 | 8.0 | 19.3 | 0.00 | 0.05 | 0.00 | 78 | 1009.5 |
| 20260831170905 | 7 | 232 | 6.4 | 19.3 | 0.00 | 0.05 | 0.00 | 79 | 1009.5 |
| 20260831170404 | 7 | 206 | 9.7 | 19.3 | 0.00 | 0.05 | 0.00 | 79 | 1009.5 |
| 20260831165904 | 7 | 199 | 9.7 | 25.7 | 0.00 | 0.05 | 0.00 | 79 | 1009.4 |
| 20260831165405 | 7 | 227 | 8.0 | 19.3 | 0.00 | 0.05 | 0.00 | 79 | 1009.2 |
| 20260831164904 | 7 | 230 | 9.7 | 25.7 | 0.00 | 0.05 | 0.00 | 79 | 1009.3 |
| 20260831163904 | 7 | 233 | 11.3 | 27.4 | 0.00 | 0.05 | 0.00 | 80 | 1009.2 |
| 20260831162904 | 7 | 201 | 12.9 | 32.2 | 0.00 | 0.05 | 0.00 | 81 | 1009.0 |
| 20260831162405 | 7 | 223 | 8.0 | 27.4 | 0.00 | 0.05 | 0.00 | 81 | 1009.0 |
| 20260831161904 | 7 | 215 | 8.0 | 22.5 | 0.00 | 0.05 | 0.00 | 81 | 1009.1 |
| 20260831160904 | 7 | 264 | 9.7 | 20.9 | 0.00 | 0.05 | 0.00 | 81 | 1009.0 |
| 20260831160405 | 7 | 260 | 8.0 | 22.5 | 0.00 | 0.05 | 0.00 | 82 | 1008.9 |
| 20260831154904 | 7 | 250 | 3.2 | 19.3 | 0.00 | 0.05 | 0.00 | 82 | 1008.8 |
| 20260831154405 | 7 | 215 | 11.3 | 22.5 | 0.00 | 0.05 | 0.00 | 82 | 1008.8 |
| 20260831153905 | 7 | 198 | 11.3 | 32.2 | 0.00 | 0.05 | 0.00 | 82 | 1008.7 |
| 20260831153404 | 7 | 214 | 12.9 | 25.7 | 0.00 | 0.05 | 0.00 | 81 | 1008.7 |
| 20260831152904 | 8 | 219 | 12.9 | 40.2 | 0.00 | 0.05 | 0.00 | 80 | 1008.7 |
| 20260831152404 | 8 | 260 | 17.7 | 46.7 | 0.00 | 0.05 | 0.00 | 77 | 1008.6 |
| 20260831151904 | 8 | 207 | 11.3 | 29.0 | 0.00 | 0.05 | 0.00 | 75 | 1008.8 |
| 20260831151404 | 8 | 238 | 9.7 | 25.7 | 0.00 | 0.05 | 0.00 | 76 | 1008.5 |
| 20260831150905 | 8 | 237 | 14.5 | 29.0 | 0.00 | 0.05 | 0.00 | 76 | 1008.5 |
| 20260831150405 | 8 | 241 | 12.9 | 32.2 | 0.00 | 0.05 | 0.00 | 76 | 1008.4 |
| 20260831145904 | 8 | 206 | 11.3 | 27.4 | 0.00 | 0.05 | 0.00 | 76 | 1008.5 |
| 20260831145405 | 8 | 227 | 9.7 | 32.2 | 0.00 | 0.05 | 0.00 | 76 | 1008.5 |
| 20260831144905 | 8 | 195 | 14.5 | 32.2 | 0.00 | 0.05 | 0.00 | 76 | 1008.5 |
| 20260831143905 | 8 | 186 | 11.3 | 29.0 | 0.00 | 0.05 | 0.00 | 76 | 1008.5 |
| 20260831142904 | 8 | 237 | 14.5 | 29.0 | 0.00 | 0.05 | 0.00 | 74 | 1008.4 |
| 20260831142404 | 8 | 210 | 14.5 | 29.0 | 0.00 | 0.05 | 0.00 | 75 | 1008.3 |
| 20260831141904 | 8 | 336 | 8.0 | 32.2 | 0.00 | 0.05 | 0.00 | 75 | 1008.5 |
| 20260831141405 | 8 | 218 | 9.7 | 25.7 | 0.00 | 0.05 | 0.00 | 75 | 1008.4 |
| 20260831140905 | 8 | 202 | 11.3 | 24.1 | 0.00 | 0.05 | 0.00 | 75 | 1008.6 |
| 20260831140404 | 8 | 158 | 8.0 | 29.0 | 0.00 | 0.05 | 0.00 | 74 | 1008.6 |
| 20260831135905 | 8 | 205 | 12.9 | 32.2 | 0.00 | 0.05 | 0.00 | 74 | 1008.8 |
| 20260831135404 | 8 | 215 | 14.5 | 37.0 | 0.00 | 0.05 | 0.00 | 74 | 1008.7 |
| 20260831134905 | 8 | 206 | 9.7 | 27.4 | 0.00 | 0.05 | 0.00 | 73 | 1008.4 |
| 20260831134404 | 8 | 216 | 12.9 | 35.4 | 0.00 | 0.05 | 0.00 | 73 | 1008.4 |
| 20260831133404 | 8 | 209 | 11.3 | 27.4 | 0.00 | 0.05 | 0.00 | 73 | 1008.1 |
| 20260831132905 | 8 | 220 | 12.9 | 25.7 | 0.00 | 0.05 | 0.00 | 72 | 1008.0 |
| 20260831132404 | 8 | 212 | 14.5 | 41.8 | 0.00 | 0.05 | 0.00 | 72 | 1007.8 |
| 20260831130904 | 8 | 212 | 12.9 | 35.4 | 0.00 | 0.05 | 0.00 | 70 | 1007.8 |
| 20260831130404 | 8 | 188 | 12.9 | 27.4 | 0.00 | 0.05 | 0.00 | 70 | 1007.6 |
| 20260831125904 | 8 | 198 | 16.1 | 37.0 | 0.03 | 0.05 | 0.00 | 69 | 1007.4 |
| 20260831124905 | 9 | 201 | 14.5 | 38.6 | 0.03 | 0.05 | 0.00 | 69 | 1007.2 |
| 20260831124405 | 9 | 214 | 14.5 | 37.0 | 0.03 | 0.05 | 0.00 | 70 | 1006.9 |
| 20260831123404 | 9 | 214 | 17.7 | 35.4 | 0.03 | 0.05 | 0.00 | 70 | 1007.1 |
| 20260831122904 | 9 | 206 | 14.5 | 41.8 | 0.03 | 0.05 | 0.00 | 71 | 1007.1 |
| 20260831122405 | 9 | 300 | 11.3 | 32.2 | 0.03 | 0.05 | 0.00 | 72 | 1007.0 |
| 20260831121905 | 9 | 205 | 14.5 | 29.0 | 0.03 | 0.05 | 0.00 | 72 | 1006.8 |
| 20260831121404 | 9 | 207 | 16.1 | 35.4 | 0.03 | 0.05 | 0.00 | 73 | 1006.8 |
| 20260831120405 | 9 | 201 | 14.5 | 25.7 | 0.03 | 0.05 | 0.00 | 75 | 1006.8 |
| 20260831115904 | 9 | 252 | 11.3 | 32.2 | 0.00 | 0.05 | 0.03 | 74 | 1006.7 |
| 20260831115405 | 9 | 224 | 14.5 | 38.6 | 0.00 | 0.05 | 0.03 | 74 | 1006.7 |
| 20260831114404 | 9 | 201 | 12.9 | 37.0 | 0.00 | 0.05 | 0.03 | 74 | 1006.7 |
| 20260831113904 | 9 | 205 | 11.3 | 32.2 | 0.00 | 0.05 | 0.03 | 74 | 1006.6 |
| 20260831113404 | 9 | 209 | 14.5 | 33.8 | 0.00 | 0.05 | 0.03 | 74 | 1006.4 |
| 20260831112904 | 9 | 236 | 11.3 | 41.8 | 0.00 | 0.05 | 0.03 | 74 | 1006.3 |
| 20260831112404 | 9 | 244 | 11.3 | 32.2 | 0.00 | 0.05 | 0.03 | 74 | 1006.2 |
| 20260831111404 | 9 | 227 | 11.3 | 32.2 | 0.00 | 0.05 | 0.03 | 75 | 1006.2 |
| 20260831110904 | 9 | 182 | 11.3 | 25.7 | 0.00 | 0.05 | 0.03 | 75 | 1006.2 |
| 20260831110409 | 9 | 277 | 16.1 | 35.4 | 0.00 | 0.05 | 0.03 | 75 | 1006.4 |
| 20260831105904 | 9 | 210 | 16.1 | 37.0 | 0.00 | 0.05 | 0.03 | 76 | 1006.1 |
| 20260831105406 | 9 | 201 | 16.1 | 27.4 | 0.00 | 0.05 | 0.03 | 76 | 1006.0 |
| 20260831104405 | 9 | 255 | 16.1 | 32.2 | 0.00 | 0.05 | 0.03 | 76 | 1005.9 |
| 20260831103904 | 9 | 235 | 9.7 | 22.5 | 0.00 | 0.05 | 0.03 | 76 | 1005.7 |
| 20260831103405 | 9 | 211 | 14.5 | 37.0 | 0.00 | 0.05 | 0.03 | 76 | 1005.8 |
| 20260831101404 | 10 | 178 | 9.7 | 32.2 | 0.00 | 0.05 | 0.03 | 75 | 1005.7 |
| 20260831100905 | 10 | 201 | 11.3 | 35.4 | 0.00 | 0.05 | 0.03 | 74 | 1005.7 |
| 20260831100404 | 10 | 193 | 19.3 | 32.2 | 0.00 | 0.05 | 0.03 | 74 | 1005.5 |
| 20260831095904 | 10 | 217 | 19.3 | 37.0 | 0.00 | 0.05 | 0.03 | 73 | 1005.3 |